| time (UTC) | temp F | wind direction | speed MPH | gust MPH | rain 1hr in | rain 24hr in | rain mn in | humidity % | barometer mb |
| 20260904144519 | 60 | 252 | 0.0 | 0.0 | 0.00 | 0.00 | 0.00 | 90 | 1011.3 |
| 20260904143027 | 60 | 202 | 0.0 | 0.0 | 0.00 | 0.00 | 0.00 | 90 | 1011.4 |
| 20260904141512 | 60 | 193 | 0.0 | 0.0 | 0.00 | 0.00 | 0.00 | 91 | 1011.2 |
| 20260904140011 | 60 | 233 | 0.0 | 0.0 | 0.00 | 0.00 | 0.00 | 91 | 1011.1 |
| 20260904134515 | 60 | 233 | 0.0 | 0.0 | 0.00 | 0.00 | 0.00 | 91 | 1011.0 |
| 20260904133012 | 59 | 41 | 0.0 | 0.0 | 0.00 | 0.00 | 0.00 | 91 | 1010.9 |
| 20260904131506 | 59 | 174 | 0.0 | 0.0 | 0.00 | 0.00 | 0.00 | 91 | 1010.8 |
| 20260904130004 | 59 | 194 | 0.0 | 0.0 | 0.00 | 0.00 | 0.00 | 91 | 1010.7 |
| 20260904124502 | 58 | 257 | 0.0 | 0.0 | 0.00 | 0.00 | 0.00 | 90 | 1010.6 |
| 20260904123002 | 58 | 245 | 0.0 | 0.0 | 0.00 | 0.00 | 0.00 | 89 | 1010.6 |
| 20260904121502 | 58 | 64 | 0.0 | 0.0 | 0.00 | 0.00 | 0.00 | 89 | 1010.6 |
| 20260904120100 | 59 | 78 | 0.0 | 0.0 | 0.00 | 0.00 | 0.00 | 89 | 1010.6 |
| 20260904114603 | 59 | 78 | 0.0 | 0.0 | 0.00 | 0.00 | 0.00 | 89 | 1010.6 |
| 20260904113058 | 59 | 90 | 0.0 | 0.0 | 0.00 | 0.00 | 0.00 | 89 | 1010.6 |
| 20260904111557 | 59 | 135 | 0.0 | 0.0 | 0.00 | 0.00 | 0.00 | 89 | 1010.6 |
| 20260904110058 | 59 | 185 | 0.0 | 0.0 | 0.00 | 0.00 | 0.00 | 89 | 1010.4 |
| 20260904104556 | 60 | 294 | 0.0 | 0.0 | 0.00 | 0.00 | 0.00 | 89 | 1010.5 |
| 20260904103055 | 60 | 267 | 0.0 | 1.0 | 0.00 | 0.00 | 0.00 | 89 | 1010.5 |
| 20260904101554 | 60 | 215 | 0.0 | 0.0 | 0.00 | 0.00 | 0.00 | 89 | 1010.5 |
| 20260904094600 | 60 | 236 | 0.0 | 0.0 | 0.00 | 0.00 | 0.00 | 89 | 1010.4 |
| 20260904093053 | 59 | 60 | 0.0 | 0.0 | 0.00 | 0.00 | 0.00 | 89 | 1010.3 |
| 20260904091552 | 59 | 288 | 0.0 | 0.0 | 0.00 | 0.00 | 0.00 | 88 | 1010.3 |
| 20260904090103 | 59 | 142 | 0.0 | 0.0 | 0.00 | 0.00 | 0.00 | 88 | 1010.4 |
| 20260904084556 | 59 | 63 | 0.0 | 0.0 | 0.00 | 0.00 | 0.00 | 88 | 1010.5 |
| 20260904083123 | 60 | 215 | 0.0 | 5.0 | 0.00 | 0.00 | 0.00 | 88 | 1010.5 |
| 20260904081548 | 59 | 178 | 0.0 | 3.0 | 0.00 | 0.00 | 0.00 | 88 | 1010.6 |
| 20260904080047 | 60 | 221 | 0.0 | 0.0 | 0.00 | 0.00 | 0.00 | 88 | 1010.6 |
| 20260904074549 | 60 | 202 | 0.0 | 3.0 | 0.00 | 0.00 | 0.00 | 88 | 1010.6 |
| 20260904073048 | 60 | 248 | 0.0 | 0.0 | 0.00 | 0.00 | 0.00 | 88 | 1010.6 |
| 20260904071601 | 60 | 218 | 0.0 | 3.0 | 0.00 | 0.00 | 0.00 | 87 | 1010.7 |
| 20260904070108 | 60 | 287 | 0.0 | 5.0 | 0.00 | 0.00 | 0.00 | 87 | 1010.6 |
| 20260904064542 | 60 | 184 | 0.0 | 5.0 | 0.00 | 0.00 | 0.00 | 86 | 1010.7 |
| 20260904063048 | 60 | 258 | 0.0 | 6.0 | 0.00 | 0.00 | 0.00 | 86 | 1010.5 |
| 20260904061541 | 59 | 167 | 0.0 | 4.0 | 0.00 | 0.00 | 0.00 | 85 | 1010.5 |
| 20260904060041 | 59 | 129 | 0.0 | 0.0 | 0.00 | 0.00 | 0.00 | 85 | 1010.4 |
| 20260904054547 | 59 | 290 | 0.0 | 7.0 | 0.00 | 0.00 | 0.00 | 85 | 1010.5 |
| 20260904053054 | 60 | 277 | 0.0 | 4.0 | 0.00 | 0.00 | 0.00 | 83 | 1010.5 |
| 20260904051543 | 60 | 232 | 0.0 | 3.0 | 0.00 | 0.00 | 0.00 | 83 | 1010.6 |
| 20260904050041 | 60 | 240 | 1.0 | 6.0 | 0.00 | 0.00 | 0.00 | 81 | 1010.6 |
| 20260904044539 | 61 | 177 | 0.0 | 0.0 | 0.00 | 0.00 | 0.00 | 79 | 1010.8 |
| 20260904043044 | 61 | 219 | 0.0 | 0.0 | 0.00 | 0.00 | 0.00 | 76 | 1010.6 |
| 20260904041538 | 62 | 221 | 0.0 | 3.0 | 0.00 | 0.00 | 0.00 | 73 | 1010.5 |
| 20260904040052 | 63 | 276 | 0.0 | 3.0 | 0.00 | 0.00 | 0.00 | 70 | 1010.1 |
| 20260904034537 | 63 | 226 | 0.0 | 0.0 | 0.00 | 0.00 | 0.00 | 67 | 1009.8 |
| 20260904033041 | 63 | 342 | 0.0 | 0.0 | 0.00 | 0.00 | 0.00 | 66 | 1009.7 |
| 20260904031549 | 64 | 67 | 0.0 | 0.0 | 0.00 | 0.00 | 0.00 | 64 | 1009.6 |
| 20260904030036 | 64 | 114 | 0.0 | 7.0 | 0.00 | 0.00 | 0.00 | 62 | 1009.4 |
| 20260904024536 | 64 | 22 | 0.0 | 5.0 | 0.00 | 0.00 | 0.00 | 63 | 1009.3 |
| 20260904023035 | 65 | 53 | 0.0 | 3.0 | 0.00 | 0.00 | 0.00 | 60 | 1009.2 |
| 20260904021535 | 66 | 79 | 0.0 | 4.0 | 0.00 | 0.00 | 0.00 | 61 | 1009.2 |
| 20260904020035 | 67 | 90 | 0.0 | 1.0 | 0.00 | 0.00 | 0.00 | 57 | 1009.1 |
| 20260904014533 | 67 | 286 | 0.0 | 4.0 | 0.00 | 0.00 | 0.00 | 54 | 1009.2 |
| 20260904013038 | 68 | 189 | 0.0 | 7.0 | 0.00 | 0.00 | 0.00 | 56 | 1009.2 |
| 20260904011536 | 69 | 227 | 0.0 | 11.0 | 0.00 | 0.00 | 0.00 | 55 | 1009.2 |
| 20260904010031 | 69 | 240 | 3.0 | 14.0 | 0.00 | 0.00 | 0.00 | 56 | 1009.3 |
| 20260904004534 | 70 | 214 | 2.0 | 8.0 | 0.00 | 0.00 | 0.00 | 56 | 1009.4 |
| 20260904003033 | 70 | 241 | 0.0 | 12.0 | 0.00 | 0.00 | 0.00 | 54 | 1009.4 |
| 20260904001531 | 71 | 215 | 2.0 | 9.0 | 0.00 | 0.00 | 0.00 | 54 | 1009.3 |
| 20260904000029 | 72 | 275 | 1.0 | 7.0 | 0.00 | 0.00 | 0.00 | 54 | 1009.4 |
| 20260903234526 | 73 | 250 | 1.0 | 7.0 | 0.00 | 0.00 | 0.00 | 53 | 1009.6 |
| 20260903233026 | 74 | 248 | 1.0 | 7.0 | 0.00 | 0.00 | 0.00 | 53 | 1009.6 |
| 20260903231526 | 73 | 240 | 2.0 | 11.0 | 0.00 | 0.00 | 0.00 | 52 | 1009.7 |
| 20260903230035 | 73 | 258 | 0.0 | 12.0 | 0.00 | 0.00 | 0.00 | 51 | 1009.8 |
| 20260903224521 | 74 | 247 | 3.0 | 13.0 | 0.00 | 0.00 | 0.00 | 51 | 1010.0 |
| 20260903223025 | 75 | 201 | 3.0 | 13.0 | 0.00 | 0.00 | 0.00 | 50 | 1010.3 |
| 20260903221518 | 76 | 219 | 2.0 | 11.0 | 0.00 | 0.00 | 0.00 | 49 | 1010.2 |
| 20260903220025 | 77 | 211 | 3.0 | 11.0 | 0.00 | 0.00 | 0.00 | 48 | 1010.4 |
| 20260903214526 | 78 | 284 | 4.0 | 12.0 | 0.00 | 0.00 | 0.00 | 47 | 1010.6 |
| 20260903213014 | 78 | 250 | 2.0 | 12.0 | 0.00 | 0.00 | 0.00 | 46 | 1010.6 |
| 20260903211526 | 78 | 215 | 2.0 | 9.0 | 0.00 | 0.00 | 0.00 | 48 | 1010.8 |
| 20260903210017 | 79 | 250 | 2.0 | 7.0 | 0.00 | 0.00 | 0.00 | 46 | 1010.8 |
| 20260903204511 | 79 | 207 | 1.0 | 8.0 | 0.00 | 0.00 | 0.00 | 46 | 1010.8 |
| 20260903203010 | 80 | 267 | 1.0 | 8.0 | 0.00 | 0.00 | 0.00 | 45 | 1011.0 |
| 20260903201511 | 79 | 221 | 1.0 | 7.0 | 0.00 | 0.00 | 0.00 | 46 | 1011.0 |
| 20260903200009 | 80 | 225 | 0.0 | 8.0 | 0.00 | 0.00 | 0.00 | 46 | 1011.1 |
| 20260903194503 | 79 | 118 | 0.0 | 4.0 | 0.00 | 0.00 | 0.00 | 44 | 1011.3 |
| 20260903193101 | 79 | 109 | 0.0 | 3.0 | 0.00 | 0.00 | 0.00 | 44 | 1011.4 |
| 20260903191557 | 77 | 202 | 0.0 | 3.0 | 0.00 | 0.00 | 0.00 | 46 | 1011.8 |
| 20260903190052 | 76 | 50 | 0.0 | 3.0 | 0.00 | 0.00 | 0.00 | 48 | 1012.1 |
| 20260903184548 | 74 | 98 | 0.0 | 4.0 | 0.00 | 0.00 | 0.00 | 50 | 1012.4 |
| 20260903183043 | 73 | 90 | 0.0 | 2.0 | 0.00 | 0.00 | 0.00 | 50 | 1012.8 |
| 20260903181539 | 72 | 113 | 0.0 | 7.0 | 0.00 | 0.00 | 0.00 | 52 | 1012.8 |
| 20260903180040 | 71 | 137 | 0.0 | 3.0 | 0.00 | 0.00 | 0.00 | 55 | 1012.9 |
| 20260903174530 | 69 | 67 | 0.0 | 0.0 | 0.00 | 0.00 | 0.00 | 58 | 1013.0 |
| 20260903173026 | 67 | 162 | 0.0 | 3.0 | 0.00 | 0.00 | 0.00 | 61 | 1013.1 |
| 20260903171522 | 66 | 321 | 0.0 | 4.0 | 0.00 | 0.00 | 0.00 | 64 | 1013.2 |
| 20260903170019 | 64 | 65 | 0.0 | 0.0 | 0.00 | 0.00 | 0.00 | 69 | 1013.4 |
| 20260903164513 | 63 | 292 | 0.0 | 4.0 | 0.00 | 0.00 | 0.00 | 72 | 1013.4 |
| 20260903163009 | 61 | 22 | 0.0 | 3.0 | 0.00 | 0.00 | 0.00 | 76 | 1013.7 |
| 20260903161505 | 60 | 57 | 0.0 | 4.0 | 0.00 | 0.00 | 0.00 | 78 | 1013.8 |
| 20260903160005 | 59 | 333 | 1.0 | 5.0 | 0.00 | 0.00 | 0.00 | 80 | 1013.9 |
| 20260903154601 | 57 | 82 | 0.0 | 0.0 | 0.00 | 0.00 | 0.00 | 84 | 1014.0 |
| 20260903153107 | 56 | 141 | 0.0 | 1.0 | 0.00 | 0.00 | 0.00 | 87 | 1014.1 |
| 20260903151551 | 54 | 187 | 0.0 | 0.0 | 0.00 | 0.00 | 0.00 | 90 | 1014.2 |
| 20260903150101 | 50 | 271 | 0.0 | 0.0 | 0.00 | 0.00 | 0.00 | 89 | 1014.2 |